Other Public Products
Issued by NWS Grand Forks, ND

Home | Current Version | Previous Version | Graphics & Text | Print | Product List | Glossary On
Versions: 1 2 3 4 5 6 7 8 9 10 11 12 13 14 15 16 17 18 19 20 21 22 23 24 25 26 27 28 29 30 31 32 33 34 35 36 37 38 39 40 41 42 43 44 45 46 47 48 49 50
000
FPUS83 KFGF 012010
OPUFGF
PRAIRIE TO PINES WEATHER ROUNDUP
NATIONAL WEATHER SERVICE EASTERN NORTH DAKOTA/GRAND FORKS ND
300 PM CDT TUE SEP 01 2015

 **SATELLITE DATA USED TO AUGMENT SKY COVER AT AUTOMATED STATIONS**
 *****  WEATHER ACROSS EASTERN NORTH DAKOTA  *****

CITY           SKY/WX    TMP DP  RH WIND       PRES   REMARKS
GRAND FORKS    SUNNY     86  54  33 S13G18    29.84S
GRAND FORKS AF SUNNY     86  54  32 SW9       29.84F
GRAND CITY NWS   N/A     88 N/A N/A S10         N/A
BUXTON         NOT AVBL
DEVILS LAKE    SUNNY     84  55  37 SE14      29.83F
FARGO          SUNNY     89  51  27 SE13      29.85F
WAHPETON ARPT  PTCLDY    86  54  32 SE10G16   29.86F
$$

 *****  WEATHER ACROSS CENTRAL AND WESTERN NORTH DAKOTA  *****

CITY           SKY/WX    TMP DP  RH WIND       PRES   REMARKS
JAMESTOWN      SUNNY     86  55  34 SE14G22   29.84F
BISMARCK       SUNNY     86  60  41 SE10      29.81F
MINOT          SUNNY     86  54  33 S14       29.79S
MINOT AFB      NOT AVBL
GARRISON         N/A     87  57  35 S13       29.81F
WILLISTON      SUNNY     90  52  27 S8        29.76F
DICKINSON      SUNNY     88  57  34 SE13      29.80F
HETTINGER      SUNNY     84  58  40 SE8       29.83F
$$

 *****  OTHER OBSERVATIONS NORTHEAST NORTH DAKOTA  *****

CITY           SKY/WX    TMP DP  RH WIND       PRES   REMARKS
WALHALLA       FAIR      88  54  31 MISG      29.80F
LANGDON        FAIR      88  48  25 SW14G23   29.84F
CAVALIER       FAIR      86  54  32 SW10G17   29.81S
GRAFTON        FAIR      86  55  35 SW12G18   29.84S
CANDO          NOT AVBL
FORT TOTTEN    NOT AVBL
ROLLA            N/A     84  54  34 SW14G22   29.83F
RUGBY          FAIR      84  55  37 SW12      29.81F
 ***** THE ABOVE OBSERVATIONS ARE NON NWS ARE NOT QUALITY
        CONTROLLED AND MAY MIS-REPORT RAIN FOR SNOW...
$$

 *****  OTHER OBSERVATIONS SOUTHEAST NORTH DAKOTA *****

CITY           SKY/WX    TMP DP  RH WIND       PRES   REMARKS
COOPERSTOWN    NOT AVBL
VALLEY CITY    FAIR      84  55  37 S10       29.86F
OAKES            N/A     86  81  84 S10       29.83F HX 102
GWINNER        FAIR      86  68  54 SE10G18   29.84F
SHEYENNE NWR     N/A     86  60  41 SE10      29.95S
BUFFALO        NOT AVBL
WYNDMERE         N/A     84  63  48 SE6         N/A
 ***** THE ABOVE OBSERVATIONS ARE NON NWS ARE NOT QUALITY
       CONTROLLED AND MAY MIS-REPORT RAIN FOR SNOW...
$$

  *****  WEATHER ACROSS NORTHERN MINNESOTA  *****

CITY           SKY/WX    TMP DP  RH WIND       PRES   REMARKS
FLAG ISLAND    SUNNY     73  59  60 S13       29.85S
WARROAD        SUNNY     82  55  39 SW10      29.86F
ROSEAU         SUNNY     84  54  34 SW9G17    29.86S
HALLOCK        SUNNY     86  54  32 SW13      29.82S
THF RVR FALLS  SUNNY     84  52  32 S7        29.87S
HALSTAD        NOT AVBL
FOSSTON        SUNNY     86  48  26 S9        29.89F
BAUDETTE       SUNNY     82  48  30 CALM      29.87F
WASKISH        SUNNY     81  59  47 W3        29.89F
CROOKSTON      SUNNY     84  52  32 S8G16     29.86S
$$
  *****  WEATHER ACROSS CENTRAL AND WEST MINNESOTA  *****

CITY           SKY/WX    TMP DP  RH WIND       PRES   REMARKS
BEMIDJI        SUNNY     83  53  35 SE5       29.90S
PARK RAPIDS    MOSUNNY   86  49  27 SE7       29.90S
WADENA         MOSUNNY   82  57  42 SE8       29.91R
DETROIT LAKES  SUNNY     84  46  26 SE7       29.91S
MOORHEAD       SUNNY     88  46  23 SE8       29.87S
FERGUS FALLS   PTSUNNY   82  61  47 SE9       29.87S
ELBOW LAKE     MOCLDY    82  69  65 S8        29.88F
MORRIS MN      CLOUDY    81  73  78 SE7       29.87S
STAPLES        PTSUNNY   82  54  36 SE6       29.91S
WHEATON        CLOUDY    81  70  69 SE8G16    29.86F
$$
  *****  WEATHER ELSEWHERE ACROSS MINNESOTA  *****

CITY           SKY/WX    TMP DP  RH WIND       PRES   REMARKS
DULUTH         MOSUNNY   83  62  49 SW3       29.91S
INTRNTL FALLS  SUNNY     80  48  32 VRB5      29.89F
ELY            MOSUNNY   79  46  31 W7        29.92S
CLOQUET        SUNNY     82  63  51 S5        29.91S
BRAINERD       MOSUNNY   83  59  44 W3        29.91R
HIBBING        SUNNY     83  49  30 SW7       29.91S
ALEXANDRIA     PTSUNNY   82  70  66 S12       29.91S
SAINT CLOUD    PTSUNNY   84  71  65 S10       29.89S
MINNEAPOLIS    CLOUDY    84  72  67 SE5       29.89S
$$

  *****  WEATHER ACROSS SOUTH DAKOTA  *****

CITY           SKY/WX    TMP DP  RH WIND       PRES   REMARKS
SIOUX FALLS    CLOUDY    79  70  74 SE13      29.88S
BROOKINGS      CLOUDY    77  70  78 SE8       29.88F
WATERTOWN      CLOUDY    81  69  67 S7        29.85F
HURON          CLOUDY    77  70  79 S10       29.84R
SISSETON         N/A     83  71  67 S7        29.83F
ABERDEEN       MOSUNNY   84  71  65 SE8       29.81F
MITCHELL       LGT RAIN  77  69  76 N10G28    29.84F
PIERRE         SUNNY     91  60  35 S18       29.77S HX  90
MOBRIDGE       SUNNY     89  70  53 SE10      29.77F HX  94
RAPID CITY     SUNNY     84  59  42 E7        29.86S
$$

  *****  SOME WEATHER IN NEARBY STATES *****

CITY           SKY/WX    TMP DP  RH WIND       PRES   REMARKS
GLASGOW MT     SUNNY     85  41  21 W16       29.75F
GREAT FALLS MT PTSUNNY   82  28  14 SW26G37   29.82F
CHEYENNE WY    MOSUNNY   84  37  18 NW13      30.11F
SCOTTSBLUFF NE SUNNY     92  40  16 W5        29.94F
OMAHA NE       PTSUNNY   88  69  53 S16       29.92F HX  92
DES MOINES IA  CLOUDY    90  71  53 S13       29.96S HX  96
DAVENPORT IA   SUNNY     89  72  56 S12       30.00F HX  96
CHICAGO IL     PTSUNNY   88  72  58 SW7G18    30.00F HX  94
EAU CLAIRE WI  MOSUNNY   86  71  60 S7        29.91S HX  91
LA CROSSE WI   SUNNY     89  73  59 S13       29.91F HX  97
$$

  *****  SOME NATIONAL WEATHER *****

CITY           SKY/WX    TMP DP  RH WIND       PRES   REMARKS
LA GUARDIA NY  MOSUNNY   86  64  47 S7        30.01F
RALEIGH NC     MOSUNNY   86  67  52 CALM      30.06F
ATLANTA GA     PTSUNNY   86  64  47 NE5       30.11S
NEW ORLEANS LA PTSUNNY   91  70  49 VRB3      30.04F HX  96
OKLAHOMA CITY  MOSUNNY   91  66  43 S15       30.00F HX  93
ALBUQUERQUE NM PTSUNNY   86  43  22 W7        30.16F
SALT LAKE CITY MOSUNNY   91  43  18 S20G25    29.94F
LOS ANGELES CA PTSUNNY   76  62  62 W13       29.91F
BOISE ID       SUNNY     82  40  22 W6        29.87F
SEATTLE WA     CLOUDY    65  58  78 S15       29.86F
$$

*** WEATHER ACROSS MANITOBA...SASKATCHEWAN AND ONTARIO ***
                ***ONTARIO***

CITY           SKY/WX    TMP DP  RH WIND       PRES   REMARKS
GERALDTON      PTSUNNY   79  57  47 SW16      29.83F
THUNDER BAY    PTSUNNY   82  64  54 W6        29.85F
SIOUX LOOKOUT  MOSUNNY   81  48  32 NW10G20   29.86S
TORONTO        SUNNY     82  68  61 SE9       30.02F
BIG TROUT LK   SUNNY     73  59  60 NW7       29.73S
PICKLE LAKE    MOSUNNY   81  50  34 W14       29.79S
DRYDEN         SUNNY     81  43  26 W14G22    29.87S
KENORA         MOSUNNY   77  52  41 SW10      29.87S
$$
                *** MANITOBA***

CITY           SKY/WX    TMP DP  RH WIND       PRES   REMARKS
BRANDON        MOSUNNY   86  46  25 S8        29.78F
DAUPHIN        SUNNY     84  50  30 SW8G17    29.73S
ISLAND LAKE    PTSUNNY   73  64  73 E3        29.72S
PILOT MOUND      N/A     88  50  27 SW14G21     N/A
THE PAS        MOSUNNY   77  50  38 S7G18     29.63F
THOMPSON       PTSUNNY   64  59  82 VRB3      29.73R
WINNIPEG       MOSUNNY   84  50  30 S6        29.80F
CHURCHILL      CLOUDY    52  46  82 S7        29.79R
GILLAM         PTSUNNY   57  50  77 N6        29.77R
$$
                ***SASKATCHEWAN***

CITY           SKY/WX    TMP DP  RH WIND       PRES   REMARKS
ESTEVAN        MOSUNNY   90  50  25 SW20G32   29.74F
KINDERSLEY     MOSUNNY   77  39  25 W15G24    29.66R
LLOYDMINSTER   PTSUNNY   68  43  40 W17G25    29.64R
PRINCE ALBERT  MOSUNNY   75  48  38 SW20G26   29.58R
REGINA         PTSUNNY   81  43  26 SW20G25   29.70F
YORKTON        SUNNY     79  45  29 S14       29.71F


USA.gov is the U.S. government's official web portal to all federal, state and local government web resources and services.